When you browse on this site, cookies collect data to enhance your experience and personalize the content and advertising you see.
Visit our Privacy Policy to learn more. By continuing to use the site, you agree to this use of cookies and data.
  • In United Kingdom
  • List of Countries
  • For 7 days
  • Water Temperature
  • Weather Map
  • Weather Widgets
  • user-avatar
    Login

    Hourly Weather Brussels

    Today, 7 December, Saturday

    Time Temperature Precipitation Wind Pressure Humidity
    00:00 +7°C° 0.1 mm 6 mps 753 mmHg 89%
    01:00 +7°C° 0 mm 6 mps 753 mmHg 89%
    02:00 +5°C° 0 mm 6 mps 754 mmHg 90%
    03:00 +6°C° 0 mm 5 mps 754 mmHg 91%
    04:00 +6°C° 0 mm 5 mps 755 mmHg 92%
    05:00 +5°C° 0 mm 5 mps 755 mmHg 93%
    06:00 +5°C° 0 mm 5 mps 756 mmHg 94%
    07:00 +5°C° 0 mm 5 mps 756 mmHg 93%
    08:00 +6°C° 0 mm 5 mps 757 mmHg 92%
    09:00 +6°C° 0 mm 5 mps 757 mmHg 92%
    10:00 +7°C° 0 mm 5 mps 757 mmHg 88%
    11:00 +7°C° 0 mm 5 mps 757 mmHg 85%
    12:00 +8°C° 0 mm 5 mps 757 mmHg 81%
    13:00 +8°C° 0 mm 5 mps 757 mmHg 82%
    14:00 +8°C° 0 mm 4 mps 757 mmHg 82%
    15:00 +8°C° 0 mm 4 mps 757 mmHg 82%
    16:00 +7°C° 0 mm 4 mps 757 mmHg 85%
    17:00 +6°C° 0 mm 4 mps 758 mmHg 88%
    18:00 +6°C° 0 mm 4 mps 758 mmHg 91%
    19:00 +6°C° 0 mm 4 mps 758 mmHg 91%
    20:00 +6°C° 0 mm 5 mps 757 mmHg 91%
    21:00 +6°C° 0 mm 5 mps 757 mmHg 92%
    22:00 +6°C° 0 mm 5 mps 757 mmHg 91%
    23:00 +5°C° 0 mm 6 mps 756 mmHg 90%

    Tomorrow, 8 December, Sunday

    Time Temperature Precipitation Wind Pressure Humidity
    00:00 +5°C° 0 mm 6 mps 756 mmHg 89%
    01:00 +5°C° 0 mm 6 mps 755 mmHg 87%
    02:00 +5°C° 0 mm 7 mps 754 mmHg 86%
    03:00 +5°C° 0 mm 7 mps 753 mmHg 84%
    04:00 +6°C° 0.2 mm 8 mps 752 mmHg 85%
    05:00 +6°C° 0.2 mm 9 mps 751 mmHg 87%
    06:00 +7°C° 0.2 mm 9 mps 750 mmHg 88%
    07:00 +8°C° 1 mm 10 mps 750 mmHg 88%
    08:00 +8°C° 1 mm 10 mps 749 mmHg 88%
    09:00 +9°C° 1 mm 10 mps 749 mmHg 88%
    10:00 +10°C° 0.1 mm 9 mps 749 mmHg 82%
    11:00 +10°C° 0.1 mm 8 mps 749 mmHg 77%
    12:00 +10°C° 0.1 mm 7 mps 749 mmHg 71%
    13:00 +9°C° 0 mm 7 mps 748 mmHg 72%
    14:00 +9°C° 0 mm 6 mps 748 mmHg 72%
    15:00 +8°C° 0 mm 6 mps 748 mmHg 72%
    16:00 +8°C° 0.2 mm 7 mps 748 mmHg 74%
    17:00 +8°C° 0.2 mm 7 mps 748 mmHg 76%
    18:00 +6°C° 0.2 mm 8 mps 747 mmHg 78%
    19:00 +6°C° 0.6 mm 8 mps 747 mmHg 79%
    20:00 +5°C° 0.6 mm 8 mps 747 mmHg 79%
    21:00 +5°C° 0.6 mm 8 mps 747 mmHg 80%
    22:00 +5°C° 0.1 mm 9 mps 746 mmHg 79%
    23:00 +5°C° 0.1 mm 9 mps 745 mmHg 78%

    Day after tomorrow, 9 December, Monday

    Time Temperature Precipitation Wind Pressure Humidity
    00:00 +5°C° 0.1 mm 10 mps 745 mmHg 77%
    01:00 +5°C° 0.6 mm 10 mps 744 mmHg 79%
    02:00 +4°C° 0.6 mm 11 mps 743 mmHg 81%
    03:00 +4°C° 0.6 mm 11 mps 742 mmHg 84%
    04:00 +5°C° 0.7 mm 10 mps 742 mmHg 82%
    05:00 +5°C° 0.7 mm 9 mps 742 mmHg 80%
    06:00 +5°C° 0.7 mm 8 mps 742 mmHg 79%
    07:00 +5°C° 0.8 mm 8 mps 742 mmHg 79%
    08:00 +5°C° 0.8 mm 8 mps 741 mmHg 79%
    09:00 +5°C° 0.8 mm 8 mps 741 mmHg 79%
    10:00 +5°C° 0.8 mm 8 mps 742 mmHg 80%
    11:00 +5°C° 0.8 mm 8 mps 742 mmHg 82%
    12:00 +6°C° 0.8 mm 9 mps 743 mmHg 83%
    13:00 +6°C° 0.3 mm 9 mps 744 mmHg 79%
    14:00 +6°C° 0.3 mm 10 mps 746 mmHg 76%
    15:00 +6°C° 0.3 mm 10 mps 747 mmHg 72%
    16:00 +6°C° 0.3 mm 10 mps 749 mmHg 70%
    17:00 +5°C° 0.3 mm 9 mps 751 mmHg 69%
    18:00 +5°C° 0.3 mm 8 mps 753 mmHg 67%
    19:00 +4°C° 0 mm 8 mps 754 mmHg 68%
    20:00 +4°C° 0 mm 7 mps 756 mmHg 69%
    21:00 +3°C° 0 mm 6 mps 757 mmHg 70%
    22:00 +3°C° 0.1 mm 6 mps 758 mmHg 70%
    23:00 +3°C° 0.1 mm 6 mps 759 mmHg 71%

    10 December, Tuesday

    Time Temperature Precipitation Wind Pressure Humidity
    00:00 +3°C° 0.1 mm 5 mps 760 mmHg 71%
    01:00 +2°C° 0 mm 5 mps 761 mmHg 73%
    02:00 +3°C° 0 mm 4 mps 762 mmHg 75%
    03:00 +3°C° 0 mm 4 mps 762 mmHg 78%
    04:00 +3°C° 0 mm 3 mps 763 mmHg 80%
    05:00 +2°C° 0 mm 3 mps 764 mmHg 83%
    06:00 +2°C° 0 mm 3 mps 764 mmHg 86%
    07:00 +2°C° 0 mm 3 mps 764 mmHg 85%
    08:00 +2°C° 0 mm 3 mps 765 mmHg 85%
    09:00 +1°C° 0 mm 4 mps 765 mmHg 84%
    10:00 +3°C° 0 mm 4 mps 765 mmHg 80%
    11:00 +3°C° 0 mm 4 mps 765 mmHg 75%
    12:00 +3°C° 0 mm 5 mps 764 mmHg 71%
    13:00 +3°C° 0 mm 5 mps 764 mmHg 71%
    14:00 +2°C° 0 mm 5 mps 763 mmHg 72%
    15:00 +2°C° 0 mm 5 mps 762 mmHg 72%
    16:00 +2°C° 0 mm 6 mps 762 mmHg 73%
    17:00 +2°C° 0 mm 7 mps 761 mmHg 73%
    18:00 0°C° 0 mm 8 mps 761 mmHg 74%
    19:00 +1°C° 0 mm 8 mps 760 mmHg 71%
    20:00 +1°C° 0 mm 9 mps 759 mmHg 68%
    21:00 +1°C° 0 mm 9 mps 759 mmHg 65%
    22:00 +1°C° 0.1 mm 10 mps 758 mmHg 67%
    23:00 +2°C° 0.1 mm 10 mps 757 mmHg 70%

    11 December, Wednesday

    Time Temperature Precipitation Wind Pressure Humidity
    00:00 +2°C° 0.1 mm 10 mps 756 mmHg 72%
    01:00 +2°C° 0.5 mm 10 mps 755 mmHg 76%
    02:00 +2°C° 0.5 mm 10 mps 754 mmHg 79%
    03:00 +2°C° 0.5 mm 10 mps 754 mmHg 83%
    04:00 +2°C° 0.8 mm 9 mps 754 mmHg 85%
    05:00 +2°C° 0.8 mm 8 mps 754 mmHg 87%
    06:00 +3°C° 0.8 mm 7 mps 754 mmHg 90%
    07:00 +4°C° 0.5 mm 6 mps 754 mmHg 90%
    08:00 +5°C° 0.5 mm 4 mps 754 mmHg 90%
    09:00 +5°C° 0.5 mm 3 mps 754 mmHg 91%
    10:00 +5°C° 0 mm 3 mps 754 mmHg 86%
    11:00 +7°C° 0 mm 3 mps 754 mmHg 82%
    12:00 +7°C° 0 mm 3 mps 754 mmHg 78%
    13:00 +7°C° 0 mm 3 mps 754 mmHg 79%
    14:00 +5°C° 0 mm 3 mps 755 mmHg 80%
    15:00 +5°C° 0 mm 3 mps 755 mmHg 81%
    16:00 +4°C° 0 mm 3 mps 755 mmHg 82%
    17:00 +4°C° 0 mm 3 mps 755 mmHg 84%
    18:00 +3°C° 0 mm 4 mps 754 mmHg 85%
    19:00 +3°C° 0 mm 4 mps 754 mmHg 84%
    20:00 +2°C° 0 mm 5 mps 754 mmHg 84%
    21:00 +2°C° 0 mm 6 mps 754 mmHg 83%
    22:00 +2°C° 0 mm 6 mps 754 mmHg 85%
    23:00 +2°C° 0 mm 6 mps 754 mmHg 86%

    12 December, Thursday

    Time Temperature Precipitation Wind Pressure Humidity
    00:00 +2°C° 0 mm 6 mps 754 mmHg 88%
    01:00 +2°C° 0 mm 6 mps 753 mmHg 87%
    02:00 +2°C° 0 mm 6 mps 753 mmHg 87%
    03:00 +2°C° 0 mm 5 mps 753 mmHg 87%
    04:00 +1°C° 0 mm 5 mps 753 mmHg 87%
    05:00 +1°C° 0 mm 5 mps 753 mmHg 87%
    06:00 +1°C° 0 mm 6 mps 753 mmHg 88%
    07:00 +1°C° 0 mm 6 mps 753 mmHg 87%
    08:00 +2°C° 0 mm 7 mps 752 mmHg 87%
    09:00 +1°C° 0 mm 8 mps 752 mmHg 86%
    10:00 +2°C° 0 mm 8 mps 751 mmHg 84%
    11:00 +2°C° 0 mm 9 mps 750 mmHg 81%
    12:00 +3°C° 0 mm 10 mps 749 mmHg 78%
    13:00 +3°C° 0 mm 10 mps 748 mmHg 79%
    14:00 +3°C° 0 mm 10 mps 747 mmHg 79%
    15:00 +5°C° 0 mm 10 mps 745 mmHg 80%
    16:00 +5°C° 0 mm 10 mps 744 mmHg 79%
    17:00 +4°C° 0 mm 11 mps 742 mmHg 79%
    18:00 +4°C° 0 mm 11 mps 740 mmHg 78%
    19:00 +4°C° 1.1 mm 12 mps 738 mmHg 80%
    20:00 +4°C° 1.1 mm 12 mps 736 mmHg 82%
    21:00 +4°C° 1.1 mm 13 mps 734 mmHg 83%
    22:00 +6°C° 0.9 mm 11 mps 733 mmHg 84%
    23:00 +6°C° 0.9 mm 10 mps 732 mmHg 85%
    Show more